Terminal Aerodrome Forecast
Issued by NWS

Home | Current Version | Previous Version | Text Only | Print | Product List | Glossary On
Versions: 1 2 3 4 5 6 7 8 9 10 11 12 13
000
FTUS45 KREV 241700
TAFMMH
TAF
KMMH 241740Z 2418/2518 VRB03KT P6SM SCT180
     FM242000 28015G25KT P6SM SCT100 BKN180
     FM251400 23020G35KT P6SM VCSH SCT070 BKN140=

USA.gov is the U.S. government's official web portal to all federal, state and local government web resources and services.